Time,TemperatureF,DewpointF,PressureIn,WindDirection,WindDirectionDegrees,WindSpeedMPH,WindSpeedGustMPH,Humidity,HourlyPrecipIn,Conditions,Clouds,dailyrainin,SoftwareType,DateUTC
2013-08-29 00:00:00,66.3,0.0,29.94,WSW,240,4.0,12.0,0,0.00,,,0.00,Weather View 32 v70,2013-08-29 07:00:00,
2013-08-29 00:10:00,66.1,0.0,29.94,South,191,8.0,12.0,0,0.00,,,0.00,Weather View 32 v70,2013-08-29 07:10:00,
2013-08-29 00:20:00,65.7,0.0,29.94,WSW,238,4.0,13.0,0,0.00,,,0.00,Weather View 32 v70,2013-08-29 07:20:00,
2013-08-29 00:30:00,65.4,0.0,29.95,West,277,5.0,17.0,0,0.00,,,0.00,Weather View 32 v70,2013-08-29 07:30:00,
2013-08-29 00:40:00,65.3,0.0,29.95,SW,225,6.0,17.0,0,0.00,,,0.00,Weather View 32 v70,2013-08-29 07:40:00,
2013-08-29 00:50:00,65.2,0.0,29.95,SW,217,6.0,17.0,0,0.00,,,0.00,Weather View 32 v70,2013-08-29 07:50:00,
2013-08-29 01:00:00,65.0,0.0,29.95,SW,217,5.0,17.0,0,0.00,,,0.00,Weather View 32 v70,2013-08-29 08:00:00,
2013-08-29 01:10:00,64.8,0.0,29.96,West,267,5.0,17.0,0,0.00,,,0.00,Weather View 32 v70,2013-08-29 08:10:00,
2013-08-29 01:20:00,64.3,0.0,29.96,West,269,5.0,17.0,0,0.00,,,0.00,Weather View 32 v70,2013-08-29 08:20:00,
2013-08-29 01:30:00,64.0,0.0,29.96,SW,228,4.0,16.0,0,0.00,,,0.00,Weather View 32 v70,2013-08-29 08:30:00,
2013-08-29 01:40:00,64.1,0.0,29.97,West,266,3.0,16.0,0,0.00,,,0.00,Weather View 32 v70,2013-08-29 08:40:00,
2013-08-29 01:50:00,63.9,0.0,29.97,SW,222,2.0,13.0,0,0.00,,,0.00,Weather View 32 v70,2013-08-29 08:50:00,
2013-08-29 02:00:00,63.9,0.0,29.97,WSW,239,6.0,14.0,0,0.00,,,0.00,Weather View 32 v70,2013-08-29 09:00:00,
2013-08-29 02:10:00,63.6,0.0,29.97,WSW,242,6.0,14.0,0,0.00,,,0.00,Weather View 32 v70,2013-08-29 09:10:00,
2013-08-29 02:20:00,63.6,0.0,29.97,WSW,240,6.0,14.0,0,0.00,,,0.00,Weather View 32 v70,2013-08-29 09:20:00,
2013-08-29 02:30:00,63.5,0.0,29.97,West,260,5.0,14.0,0,0.00,,,0.00,Weather View 32 v70,2013-08-29 09:30:00,
2013-08-29 02:40:00,63.4,0.0,29.97,WSW,253,7.0,14.0,0,0.00,,,0.00,Weather View 32 v70,2013-08-29 09:40:00,
2013-08-29 02:50:00,63.1,0.0,29.97,SW,229,4.0,14.0,0,0.00,,,0.00,Weather View 32 v70,2013-08-29 09:50:00,
2013-08-29 03:00:00,63.1,0.0,29.97,SW,232,5.0,13.0,0,0.00,,,0.00,Weather View 32 v70,2013-08-29 10:00:00,
2013-08-29 03:10:00,63.2,0.0,29.97,SSW,212,8.0,13.0,0,0.00,,,0.00,Weather View 32 v70,2013-08-29 10:10:00,
2013-08-29 03:20:00,63.0,0.0,29.98,SW,214,4.0,13.0,0,0.00,,,0.00,Weather View 32 v70,2013-08-29 10:20:00,
2013-08-29 03:30:00,63.0,0.0,29.98,WSW,242,4.0,13.0,0,0.00,,,0.00,Weather View 32 v70,2013-08-29 10:30:00,
2013-08-29 03:40:00,63.0,0.0,29.98,West,271,6.0,13.0,0,0.00,,,0.00,Weather View 32 v70,2013-08-29 10:40:00,
2013-08-29 03:50:00,63.0,0.0,29.98,West,262,5.0,14.0,0,0.00,,,0.00,Weather View 32 v70,2013-08-29 10:50:00,
2013-08-29 04:00:00,63.0,0.0,29.98,SW,231,5.0,14.0,0,0.00,,,0.00,Weather View 32 v70,2013-08-29 11:00:00,
2013-08-29 04:05:00,63.0,0.0,29.98,SW,231,5.0,14.0,0,0.00,,,0.00,Weather View 32 v70,2013-08-29 11:05:00,
2013-08-29 04:20:00,62.5,0.0,29.98,SSW,211,5.0,14.0,0,0.00,,,0.00,Weather View 32 v70,2013-08-29 11:20:00,
2013-08-29 04:30:00,62.5,0.0,29.98,SW,233,6.0,14.0,0,0.00,,,0.00,Weather View 32 v70,2013-08-29 11:30:00,
2013-08-29 04:40:00,62.6,0.0,29.98,SSW,211,3.0,14.0,0,0.00,,,0.00,Weather View 32 v70,2013-08-29 11:40:00,
2013-08-29 04:50:00,62.6,0.0,29.99,SW,222,2.0,14.0,0,0.00,,,0.00,Weather View 32 v70,2013-08-29 11:50:00,
2013-08-29 05:00:00,62.4,0.0,29.99,WNW,285,3.0,14.0,0,0.00,,,0.00,Weather View 32 v70,2013-08-29 12:00:00,
2013-08-29 05:06:00,62.4,0.0,29.99,WNW,285,3.0,14.0,0,0.00,,,0.00,Weather View 32 v70,2013-08-29 12:06:00,
2013-08-29 05:20:00,62.4,0.0,29.99,WSW,242,2.0,14.0,0,0.00,,,0.00,Weather View 32 v70,2013-08-29 12:20:00,
2013-08-29 05:30:00,62.5,0.0,30.00,West,270,6.0,14.0,0,0.00,,,0.00,Weather View 32 v70,2013-08-29 12:30:00,
2013-08-29 05:40:00,62.5,0.0,30.00,West,274,4.0,12.0,0,0.00,,,0.00,Weather View 32 v70,2013-08-29 12:40:00,
2013-08-29 05:50:00,62.4,0.0,30.00,WSW,242,5.0,12.0,0,0.00,,,0.00,Weather View 32 v70,2013-08-29 12:50:00,
2013-08-29 06:00:00,62.7,0.0,30.01,SW,235,8.0,12.0,0,0.00,,,0.00,Weather View 32 v70,2013-08-29 13:00:00,
2013-08-29 06:06:00,62.7,0.0,30.01,SW,235,8.0,12.0,0,0.00,,,0.00,Weather View 32 v70,2013-08-29 13:06:00,
2013-08-29 06:20:00,62.5,0.0,30.01,SW,229,1.0,12.0,0,0.00,,,0.00,Weather View 32 v70,2013-08-29 13:20:00,
2013-08-29 06:30:00,62.9,0.0,30.01,NW,319,3.0,12.0,0,0.00,,,0.00,Weather View 32 v70,2013-08-29 13:30:00,
2013-08-29 06:40:00,62.4,0.0,30.01,WSW,238,3.0,12.0,0,0.00,,,0.00,Weather View 32 v70,2013-08-29 13:40:00,
2013-08-29 06:50:00,62.2,0.0,30.02,SW,231,2.0,12.0,0,0.00,,,0.00,Weather View 32 v70,2013-08-29 13:50:00,
2013-08-29 07:00:00,62.2,0.0,30.03,WNW,285,5.0,12.0,0,0.00,,,0.00,Weather View 32 v70,2013-08-29 14:00:00,
2013-08-29 07:07:00,62.2,0.0,30.03,WNW,285,5.0,12.0,0,0.00,,,0.00,Weather View 32 v70,2013-08-29 14:07:00,
2013-08-29 07:20:00,62.6,0.0,30.03,West,276,8.0,12.0,0,0.00,,,0.00,Weather View 32 v70,2013-08-29 14:20:00,
2013-08-29 07:30:00,63.1,0.0,30.03,SSW,212,7.0,14.0,0,0.00,,,0.00,Weather View 32 v70,2013-08-29 14:30:00,
2013-08-29 07:40:00,63.4,0.0,30.03,South,177,3.0,14.0,0,0.00,,,0.00,Weather View 32 v70,2013-08-29 14:40:00,
2013-08-29 07:50:00,63.8,0.0,30.04,SW,214,3.0,14.0,0,0.00,,,0.00,Weather View 32 v70,2013-08-29 14:50:00,
2013-08-29 08:00:00,64.6,0.0,30.04,WSW,243,5.0,14.0,0,0.00,,,0.00,Weather View 32 v70,2013-08-29 15:00:00,
2013-08-29 08:07:00,64.6,0.0,30.04,WSW,243,5.0,14.0,0,0.00,,,0.00,Weather View 32 v70,2013-08-29 15:07:00,
2013-08-29 08:20:00,65.6,0.0,30.04,SSW,207,2.0,14.0,0,0.00,,,0.00,Weather View 32 v70,2013-08-29 15:20:00,
2013-08-29 08:30:00,66.5,0.0,30.05,WSW,240,6.0,13.0,0,0.00,,,0.00,Weather View 32 v70,2013-08-29 15:30:00,
2013-08-29 08:40:00,67.1,0.0,30.05,SW,232,3.0,13.0,0,0.00,,,0.00,Weather View 32 v70,2013-08-29 15:40:00,
2013-08-29 08:50:00,67.8,0.0,30.05,West,269,5.0,13.0,0,0.00,,,0.00,Weather View 32 v70,2013-08-29 15:50:00,
2013-08-29 09:00:00,68.5,0.0,30.05,WSW,240,5.0,13.0,0,0.00,,,0.00,Weather View 32 v70,2013-08-29 16:00:00,
2013-08-29 09:08:00,68.5,0.0,30.05,WSW,240,5.0,13.0,0,0.00,,,0.00,Weather View 32 v70,2013-08-29 16:08:00,
2013-08-29 09:20:00,70.1,0.0,30.05,SSW,205,7.0,13.0,0,0.00,,,0.00,Weather View 32 v70,2013-08-29 16:20:00,
2013-08-29 09:30:00,70.3,0.0,30.05,NNW,339,4.0,13.0,0,0.00,,,0.00,Weather View 32 v70,2013-08-29 16:30:00,
2013-08-29 09:40:00,71.6,0.0,30.05,South,188,4.0,13.0,0,0.00,,,0.00,Weather View 32 v70,2013-08-29 16:40:00,
2013-08-29 09:50:00,72.8,0.0,30.06,WSW,245,5.0,13.0,0,0.00,,,0.00,Weather View 32 v70,2013-08-29 16:50:00,
2013-08-29 10:00:00,73.7,0.0,30.06,SW,232,3.0,13.0,0,0.00,,,0.00,Weather View 32 v70,2013-08-29 17:00:00,
2013-08-29 10:08:00,73.7,0.0,30.06,SW,232,3.0,13.0,0,0.00,,,0.00,Weather View 32 v70,2013-08-29 17:08:00,
2013-08-29 10:20:00,74.9,0.0,30.05,SW,236,5.0,14.0,0,0.00,,,0.00,Weather View 32 v70,2013-08-29 17:20:00,
2013-08-29 10:30:00,76.7,0.0,30.05,SW,218,6.0,14.0,0,0.00,,,0.00,Weather View 32 v70,2013-08-29 17:30:00,
2013-08-29 10:40:00,77.0,0.0,30.05,WSW,246,3.0,14.0,0,0.00,,,0.00,Weather View 32 v70,2013-08-29 17:40:00,
2013-08-29 10:50:00,77.9,0.0,30.05,South,190,6.0,14.0,0,0.00,,,0.00,Weather View 32 v70,2013-08-29 17:50:00,
2013-08-29 11:00:00,79.0,0.0,30.05,South,169,4.0,14.0,0,0.00,,,0.00,Weather View 32 v70,2013-08-29 18:00:00,
2013-08-29 11:09:00,79.0,0.0,30.05,South,169,4.0,14.0,0,0.00,,,0.00,Weather View 32 v70,2013-08-29 18:09:00,
2013-08-29 11:20:00,81.7,0.0,30.05,SW,219,4.0,15.0,0,0.00,,,0.00,Weather View 32 v70,2013-08-29 18:20:00,
2013-08-29 11:30:00,81.6,0.0,30.05,SSW,197,6.0,15.0,0,0.00,,,0.00,Weather View 32 v70,2013-08-29 18:30:00,
2013-08-29 11:40:00,82.5,0.0,30.05,SW,236,6.0,15.0,0,0.00,,,0.00,Weather View 32 v70,2013-08-29 18:40:00,
2013-08-29 11:50:00,82.4,0.0,30.05,SW,226,6.0,15.0,0,0.00,,,0.00,Weather View 32 v70,2013-08-29 18:50:00,
2013-08-29 12:00:00,84.2,0.0,30.05,SSW,195,7.0,15.0,0,0.00,,,0.00,Weather View 32 v70,2013-08-29 19:00:00,
2013-08-29 12:10:00,85.2,0.0,30.05,SSW,198,5.0,15.0,0,0.00,,,0.00,Weather View 32 v70,2013-08-29 19:10:00,
2013-08-29 12:20:00,85.7,0.0,30.05,SSW,210,3.0,15.0,0,0.00,,,0.00,Weather View 32 v70,2013-08-29 19:20:00,
2013-08-29 12:30:00,87.1,0.0,30.05,South,184,4.0,15.0,0,0.00,,,0.00,Weather View 32 v70,2013-08-29 19:30:00,
2013-08-29 12:40:00,87.9,0.0,30.05,SW,222,5.0,14.0,0,0.00,,,0.00,Weather View 32 v70,2013-08-29 19:40:00,
2013-08-29 12:50:00,88.1,0.0,30.04,SSW,210,11.0,14.0,0,0.00,,,0.00,Weather View 32 v70,2013-08-29 19:50:00,
2013-08-29 13:00:00,88.0,0.0,30.04,West,278,3.0,14.0,0,0.00,,,0.00,Weather View 32 v70,2013-08-29 20:00:00,
2013-08-29 13:10:00,89.1,0.0,30.03,WSW,250,6.0,15.0,0,0.00,,,0.00,Weather View 32 v70,2013-08-29 20:10:00,
2013-08-29 13:20:00,87.4,0.0,30.03,ESE,120,3.0,15.0,0,0.00,,,0.00,Weather View 32 v70,2013-08-29 20:20:00,
2013-08-29 13:30:00,88.1,0.0,30.03,WSW,245,5.0,15.0,0,0.00,,,0.00,Weather View 32 v70,2013-08-29 20:30:00,
2013-08-29 13:40:00,87.9,0.0,30.03,South,188,8.0,16.0,0,0.00,,,0.00,Weather View 32 v70,2013-08-29 20:40:00,
2013-08-29 13:50:00,89.0,0.0,30.03,SSW,203,11.0,16.0,0,0.00,,,0.00,Weather View 32 v70,2013-08-29 20:50:00,
2013-08-29 14:00:00,90.0,0.0,30.03,South,172,6.0,16.0,0,0.00,,,0.00,Weather View 32 v70,2013-08-29 21:00:00,
2013-08-29 14:10:00,90.8,0.0,30.03,SSW,208,10.0,16.0,0,0.00,,,0.00,Weather View 32 v70,2013-08-29 21:10:00,
2013-08-29 14:20:00,87.9,0.0,30.02,SW,214,11.0,16.0,0,0.00,,,0.00,Weather View 32 v70,2013-08-29 21:20:00,
2013-08-29 14:30:00,89.0,0.0,30.02,South,170,9.0,16.0,0,0.00,,,0.00,Weather View 32 v70,2013-08-29 21:30:00,
2013-08-29 14:40:00,90.4,0.0,30.01,SSW,210,3.0,15.0,0,0.00,,,0.00,Weather View 32 v70,2013-08-29 21:40:00,
2013-08-29 14:50:00,88.7,0.0,30.01,SW,219,9.0,15.0,0,0.00,,,0.00,Weather View 32 v70,2013-08-29 21:50:00,
2013-08-29 15:00:00,90.7,0.0,30.01,South,190,10.0,15.0,0,0.00,,,0.00,Weather View 32 v70,2013-08-29 22:00:00,
2013-08-29 15:10:00,90.3,0.0,30.01,SSW,201,3.0,16.0,0,0.00,,,0.00,Weather View 32 v70,2013-08-29 22:10:00,
2013-08-29 15:20:00,89.6,0.0,30.00,SSW,201,6.0,16.0,0,0.00,,,0.00,Weather View 32 v70,2013-08-29 22:20:00,
2013-08-29 15:30:00,90.4,0.0,30.00,SW,232,11.0,17.0,0,0.00,,,0.00,Weather View 32 v70,2013-08-29 22:30:00,
2013-08-29 15:40:00,90.1,0.0,29.99,SW,226,8.0,17.0,0,0.00,,,0.00,Weather View 32 v70,2013-08-29 22:40:00,
2013-08-29 15:50:00,90.1,0.0,29.99,SW,222,7.0,17.0,0,0.00,,,0.00,Weather View 32 v70,2013-08-29 22:50:00,
2013-08-29 16:00:00,89.9,0.0,29.99,SSE,152,3.0,17.0,0,0.00,,,0.00,Weather View 32 v70,2013-08-29 23:00:00,
2013-08-29 16:10:00,90.1,0.0,29.99,WSW,250,6.0,17.0,0,0.00,,,0.00,Weather View 32 v70,2013-08-29 23:10:00,
2013-08-29 16:20:00,89.8,0.0,29.98,SW,231,6.0,17.0,0,0.00,,,0.00,Weather View 32 v70,2013-08-29 23:20:00,
2013-08-29 16:30:00,89.0,0.0,29.98,SW,221,10.0,17.0,0,0.00,,,0.00,Weather View 32 v70,2013-08-29 23:30:00,
2013-08-29 16:40:00,89.6,0.0,29.98,West,260,8.0,16.0,0,0.00,,,0.00,Weather View 32 v70,2013-08-29 23:40:00,
2013-08-29 16:50:00,89.4,0.0,29.97,WSW,253,8.0,16.0,0,0.00,,,0.00,Weather View 32 v70,2013-08-29 23:50:00,
2013-08-29 17:00:00,88.5,0.0,29.97,SSW,207,9.0,18.0,0,0.00,,,0.00,Weather View 32 v70,2013-08-30 00:00:00,
2013-08-29 17:10:00,88.4,0.0,29.97,SSW,201,6.0,18.0,0,0.00,,,0.00,Weather View 32 v70,2013-08-30 00:10:00,
2013-08-29 17:20:00,88.3,0.0,29.97,West,260,10.0,18.0,0,0.00,,,0.00,Weather View 32 v70,2013-08-30 00:20:00,
2013-08-29 17:30:00,87.6,0.0,29.96,SSW,210,9.0,18.0,0,0.00,,,0.00,Weather View 32 v70,2013-08-30 00:30:00,
2013-08-29 17:40:00,87.2,0.0,29.96,SW,218,8.0,18.0,0,0.00,,,0.00,Weather View 32 v70,2013-08-30 00:40:00,
2013-08-29 17:50:00,86.2,0.0,29.96,South,180,3.0,18.0,0,0.00,,,0.00,Weather View 32 v70,2013-08-30 00:50:00,
2013-08-29 18:00:00,85.7,0.0,29.96,WSW,253,6.0,16.0,0,0.00,,,0.00,Weather View 32 v70,2013-08-30 01:00:00,
2013-08-29 18:10:00,85.7,0.0,29.96,West,269,5.0,16.0,0,0.00,,,0.00,Weather View 32 v70,2013-08-30 01:10:00,
2013-08-29 18:20:00,85.7,0.0,29.96,WNW,301,2.0,13.0,0,0.00,,,0.00,Weather View 32 v70,2013-08-30 01:20:00,
2013-08-29 18:30:00,84.4,0.0,29.96,SSW,194,6.0,12.0,0,0.00,,,0.00,Weather View 32 v70,2013-08-30 01:30:00,
2013-08-29 18:40:00,83.5,0.0,29.96,SSE,163,1.0,12.0,0,0.00,,,0.00,Weather View 32 v70,2013-08-30 01:40:00,
2013-08-29 18:50:00,81.7,0.0,29.96,SSW,203,2.0,12.0,0,0.00,,,0.00,Weather View 32 v70,2013-08-30 01:50:00,
2013-08-29 19:00:00,81.3,0.0,29.96,West,273,3.0,12.0,0,0.00,,,0.00,Weather View 32 v70,2013-08-30 02:00:00,
2013-08-29 19:10:00,80.3,0.0,29.95,NW,318,2.0,10.0,0,0.00,,,0.00,Weather View 32 v70,2013-08-30 02:10:00,
2013-08-29 19:20:00,79.7,0.0,29.95,WSW,248,3.0,10.0,0,0.00,,,0.00,Weather View 32 v70,2013-08-30 02:20:00,
2013-08-29 19:30:00,79.1,0.0,29.95,WSW,253,4.0,10.0,0,0.00,,,0.00,Weather View 32 v70,2013-08-30 02:30:00,
2013-08-29 19:40:00,78.0,0.0,29.96,WSW,242,0.0,10.0,0,0.00,,,0.00,Weather View 32 v70,2013-08-30 02:40:00,
2013-08-29 19:50:00,77.1,0.0,29.96,SW,219,2.0,10.0,0,0.00,,,0.00,Weather View 32 v70,2013-08-30 02:50:00,
2013-08-29 20:00:00,76.6,0.0,29.96,SW,231,6.0,10.0,0,0.00,,,0.00,Weather View 32 v70,2013-08-30 03:00:00,
2013-08-29 20:10:00,75.7,0.0,29.97,WSW,252,7.0,10.0,0,0.00,,,0.00,Weather View 32 v70,2013-08-30 03:10:00,
2013-08-29 20:20:00,75.1,0.0,29.97,WNW,293,5.0,10.0,0,0.00,,,0.00,Weather View 32 v70,2013-08-30 03:20:00,
2013-08-29 20:30:00,74.5,0.0,29.97,WNW,285,5.0,10.0,0,0.00,,,0.00,Weather View 32 v70,2013-08-30 03:30:00,
2013-08-29 20:40:00,73.6,0.0,29.98,SW,229,1.0,10.0,0,0.00,,,0.00,Weather View 32 v70,2013-08-30 03:40:00,
2013-08-29 20:50:00,73.6,0.0,29.98,WSW,249,2.0,10.0,0,0.00,,,0.00,Weather View 32 v70,2013-08-30 03:50:00,
2013-08-29 21:00:00,73.3,0.0,29.98,West,270,1.0,10.0,0,0.00,,,0.00,Weather View 32 v70,2013-08-30 04:00:00,
2013-08-29 21:10:00,72.7,0.0,29.98,WSW,256,4.0,10.0,0,0.00,,,0.00,Weather View 32 v70,2013-08-30 04:10:00,
2013-08-29 21:15:00,72.7,0.0,29.98,WSW,256,4.0,10.0,0,0.00,,,0.00,Weather View 32 v70,2013-08-30 04:15:00,
2013-08-29 21:20:00,72.1,0.0,29.99,West,259,3.0,11.0,0,0.00,,,0.00,Weather View 32 v70,2013-08-30 04:20:00,
2013-08-29 21:30:00,71.6,0.0,29.99,West,267,3.0,11.0,0,0.00,,,0.00,Weather View 32 v70,2013-08-30 04:30:00,
2013-08-29 21:40:00,71.0,0.0,29.99,WNW,285,3.0,11.0,0,0.00,,,0.00,Weather View 32 v70,2013-08-30 04:40:00,
2013-08-29 21:50:00,70.9,0.0,29.99,WNW,302,2.0,11.0,0,0.00,,,0.00,Weather View 32 v70,2013-08-30 04:50:00,
2013-08-29 22:00:00,70.7,0.0,29.99,West,269,6.0,11.0,0,0.00,,,0.00,Weather View 32 v70,2013-08-30 05:00:00,
2013-08-29 22:10:00,70.6,0.0,30.00,West,264,2.0,11.0,0,0.00,,,0.00,Weather View 32 v70,2013-08-30 05:10:00,
2013-08-29 22:15:00,70.6,0.0,30.00,West,264,2.0,11.0,0,0.00,,,0.00,Weather View 32 v70,2013-08-30 05:15:00,
2013-08-29 22:30:00,70.3,0.0,30.00,WNW,285,0.0,9.0,0,0.00,,,0.00,Weather View 32 v70,2013-08-30 05:30:00,
2013-08-29 22:40:00,70.2,0.0,30.01,West,263,0.0,9.0,0,0.00,,,0.00,Weather View 32 v70,2013-08-30 05:40:00,
2013-08-29 22:50:00,69.8,0.0,30.01,West,263,0.0,9.0,0,0.00,,,0.00,Weather View 32 v70,2013-08-30 05:50:00,
2013-08-29 23:00:00,69.5,0.0,30.01,West,263,0.0,9.0,0,0.00,,,0.00,Weather View 32 v70,2013-08-30 06:00:00,
2013-08-29 23:10:00,69.1,0.0,30.01,SW,219,0.0,6.0,0,0.00,,,0.00,Weather View 32 v70,2013-08-30 06:10:00,
2013-08-29 23:16:00,69.1,0.0,30.01,SW,219,0.0,6.0,0,0.00,,,0.00,Weather View 32 v70,2013-08-30 06:16:00,
2013-08-29 23:30:00,69.2,0.0,30.01,West,280,0.0,6.0,0,0.00,,,0.00,Weather View 32 v70,2013-08-30 06:30:00,
2013-08-29 23:40:00,68.5,0.0,30.01,SW,225,0.0,5.0,0,0.00,,,0.00,Weather View 32 v70,2013-08-30 06:40:00,
2013-08-29 23:50:00,68.5,0.0,30.02,West,266,0.0,5.0,0,0.00,,,0.00,Weather View 32 v70,2013-08-30 06:50:00,